This demonstration page uses our WeatherBlox Daily Observations layout. Learn more.

Left ArrowRight Arrow

Hourly Observations for November 18, 2021

Temp ( °F °C ) Dew Point ( °F °C ) Humidity (%) Winds ( mph kmh ) Pressure ( in mb ) Visibility ( mi km ) Precip ( " mm )
12:53 am 00:53 Clear 47 8.3 45 7.2 93 93 Calm 30.23 1024 8 13 0.00 0.00
1:53 am 01:53 Clear 46 7.8 43 6.1 89 89 Calm 30.22 1023 9 14 0.00 0.00
2:53 am 02:53 Clear 45 7.2 44 6.7 97 97 Calm 30.23 1024 10 16 0.00 0.00
3:53 am 03:53 Clear 45 7.2 43 6.1 93 93 Calm 30.23 1024 10 16 0.00 0.00
4:53 am 04:53 Clear 44 6.7 42 5.6 93 93 NNW 5 7 30.22 1023 10 16 0.00 0.00
5:53 am 05:53 Clear 44 6.7 43 6.1 96 96 Calm 30.23 1024 10 16 0.00 0.00
6:53 am 06:53 Mostly Cloudy 45 7.2 43 6.1 93 93 Calm 30.23 1024 10 16 0.00 0.00
7:53 am 07:53 Sunny 46 7.8 45 7.2 96 96 Calm 30.23 1024 10 16 0.00 0.00
8:53 am 08:53 Sunny 53 11.7 49 9.4 86 86 Calm 30.25 1024 8 13 0.00 0.00
9:53 am 09:53 Sunny 60 15.6 52 11.1 75 75 W 3 6 30.24 1024 10 16 0.00 0.00
10:53 am 10:53 Cloudy 68 20 55 12.8 63 63 WSW 7 11 30.24 1024 10 16 0.00 0.00
11:53 am 11:53 Mostly Cloudy 71 21.7 57 13.9 61 61 SW 8 13 30.23 1024 10 16 0.00 0.00
12:53 pm 12:53 Cloudy 72 22.2 57 13.9 59 59 SW 9 15 30.20 1023 10 16 0.00 0.00
1:53 pm 13:53 Mostly Cloudy 74 23.3 56 13.3 54 54 S 7 11 30.18 1022 10 16 0.00 0.00
2:53 pm 14:53 Cloudy 75 23.9 54 12.2 48 48 WNW 12 19 30.17 1022 10 16 0.00 0.00
3:53 pm 15:53 Cloudy 71 21.7 55 12.8 57 57 NNW 13 20 30.19 1022 10 16 0.00 0.00
4:53 pm 16:53 Partly Cloudy 68 20 56 13.3 65 65 NNW 6 9 30.19 1022 10 16 0.00 0.00
5:53 pm 17:53 Clear 64 17.8 56 13.3 75 75 NW 6 9 30.21 1023 10 16 0.00 0.00
6:35 pm 18:35 Cloudy 62 16.7 54 12.2 75 75 NNW 12 19 30.24 1024 10 16 0.00 0.00
6:53 pm 18:53 Cloudy 59 15 52 11.1 78 78 N 12 19 30.25 1024 10 16 0.00 0.00
7:02 pm 19:02 Cloudy 59 15 52 11.1 78 78 NNW 12 19 30.24 1024 10 16 0.00 0.00
7:38 pm 19:38 Cloudy 56 13.3 48 8.9 75 75 NNW 9 15 30.28 1025 10 16 0.00 0.00
7:53 pm 19:53 Cloudy 54 12.2 44 6.7 69 69 NW 12 19 30.29 1026 10 16 0.00 0.00
8:53 pm 20:53 Cloudy 51 10.6 32 0 48 48 NNW 7 11 30.32 1027 10 16 0.00 0.00
9:53 pm 21:53 Mostly Clear 48 8.9 32 0 54 54 NNW 8 13 30.32 1027 10 16 0.00 0.00
10:53 pm 22:53 Clear 46 7.8 35 1.7 66 66 NNW 8 13 30.32 1027 10 16 0.00 0.00
11:53 pm 23:53 Clear 44 6.7 35 1.7 71 71 NNW 8 13 30.33 1027 10 16 0.00 0.00

Powered by AerisWeather